N0JY-4 Weather Reports


Display with metric or nautical units.
time (UTC)temp
F
wind
direction
speed
MPH
gust
MPH
rain 1hr
in
rain 24hr
in
rain mn
in
humidity
%
barometer
mb
20180122001729 69 160 5.0 4.0 0.00 0.00 0.00 78 1007.6
20180122001003 70 207 4.0 6.0 0.00 0.00 0.00 78 1007.5
20180122000237 71 166 5.0 6.0 0.00 0.00 0.00 77 1007.5
20180121235504 71 167 6.0 5.0 0.00 0.00 0.00 76 1007.3
20180121234737 71 148 7.0 4.0 0.00 0.00 0.00 76 1007.4
20180121234011 70 176 6.0 5.0 0.00 0.00 0.00 76 1007.4
20180121233245 69 156 7.0 6.0 0.00 0.00 0.00 76 1007.3
20180121232504 71 169 7.0 6.0 0.00 0.00 0.00 76 1007.3
20180121231738 71 155 7.0 6.0 0.00 0.00 0.00 76 1007.4
20180121231012 71 172 8.0 8.0 0.00 0.00 0.00 76 1007.3
20180121230245 71 152 8.0 6.0 0.00 0.00 0.00 75 1007.3
20180121225509 70 165 8.0 7.0 0.00 0.00 0.00 73 1007.3
20180121224736 72 134 8.0 7.0 0.00 0.00 0.00 72 1007.2
20180121224009 73 162 8.0 12.0 0.00 0.00 0.00 72 1007.3
20180121223243 70 167 9.0 8.0 0.00 0.00 0.00 72 1007.2
20180121222511 71 153 9.0 9.0 0.00 0.00 0.00 71 1007.1
20180121221745 73 167 10.0 8.0 0.00 0.00 0.00 68 1007.0
20180121221013 72 204 8.0 8.0 0.00 0.00 0.00 72 1006.9
20180121220246 71 156 10.0 9.0 0.00 0.00 0.00 76 1006.9
20180121215516 69 169 11.0 14.0 0.00 0.00 0.00 78 1007.1
20180121214749 71 156 13.0 15.0 0.00 0.00 0.00 77 1007.0
20180121214020 71 172 11.0 12.0 0.00 0.00 0.00 75 1007.0
20180121213252 72 152 11.0 12.0 0.00 0.00 0.00 73 1007.0
20180121212517 72 135 10.0 6.0 0.00 0.00 0.00 70 1007.0
20180121211748 73 177 9.0 9.0 0.00 0.00 0.00 71 1007.1
20180121211021 73 156 9.0 8.0 0.00 0.00 0.00 72 1007.1
20180121210255 71 170 7.0 8.0 0.00 0.00 0.00 71 1007.2
20180121205523 71 167 14.0 10.0 0.00 0.00 0.00 71 1007.5
20180121204756 73 197 10.0 12.0 0.00 0.00 0.00 68 1007.7
20180121204029 73 198 11.0 11.0 0.00 0.00 0.00 67 1007.6
20180121203303 74 187 11.0 12.0 0.00 0.00 0.00 67 1007.8
20180121202531 73 194 12.0 10.0 0.00 0.00 0.00 67 1008.1
20180121201804 71 222 10.0 9.0 0.00 0.00 0.00 70 1008.3
20180121201037 71 187 12.0 10.0 0.00 0.00 0.00 71 1008.4
20180121200310 71 187 13.0 10.0 0.00 0.00 0.00 70 1008.5
20180121195541 72 194 10.0 13.0 0.00 0.00 0.00 69 1008.5
20180121194814 71 187 9.0 14.0 0.00 0.00 0.00 69 1008.6
20180121194046 71 211 13.0 17.0 0.00 0.00 0.00 70 1008.9
20180121193320 71 207 10.0 13.0 0.00 0.00 0.00 73 1009.3
20180121192549 72 181 10.0 10.0 0.00 0.00 0.00 69 1009.3
20180121191823 72 203 12.0 9.0 0.00 0.00 0.00 68 1009.5
20180121191055 71 188 10.0 7.0 0.00 0.00 0.00 68 1009.6
20180121190328 72 191 11.0 11.0 0.00 0.00 0.00 68 1009.9
20180121185555 72 200 12.0 14.0 0.00 0.00 0.00 68 1010.1
20180121184827 71 186 14.0 10.0 0.00 0.00 0.00 68 1010.2
20180121184101 72 183 10.0 10.0 0.00 0.00 0.00 68 1010.4
20180121183335 72 207 10.0 15.0 0.00 0.00 0.00 69 1010.6
20180121182602 72 208 13.0 16.0 0.00 0.00 0.00 68 1010.8
20180121181835 72 205 11.0 13.0 0.00 0.00 0.00 69 1010.9
20180121181109 72 194 12.0 12.0 0.00 0.00 0.00 69 1011.3
20180121180340 72 204 14.0 13.0 0.00 0.00 0.00 68 1011.3
20180121175607 72 204 14.0 16.0 0.00 0.00 0.00 68 1011.5
20180121174840 72 190 14.0 11.0 0.00 0.00 0.00 68 1011.6
20180121174113 72 217 13.0 16.0 0.00 0.00 0.00 68 1011.6
20180121173347 72 210 14.0 22.0 0.00 0.00 0.00 68 1011.6
20180121172615 70 187 16.0 12.0 0.00 0.00 0.00 69 1011.7
20180121171848 72 173 16.0 21.0 0.00 0.00 0.00 70 1011.8
20180121171121 72 183 13.0 15.0 0.00 0.00 0.00 70 1011.9
20180121170355 70 165 18.0 18.0 0.00 0.00 0.00 71 1011.8
20180121165624 70 181 12.0 19.0 0.00 0.00 0.00 71 1011.8
20180121164858 71 179 12.0 10.0 0.00 0.00 0.00 72 1011.7
20180121164127 70 158 18.0 19.0 0.00 0.00 0.00 72 1011.7
20180121163401 70 155 17.0 13.0 0.00 0.00 0.00 73 1011.7
20180121162629 69 180 15.0 14.0 0.00 0.00 0.00 73 1011.8
20180121161901 71 186 11.0 14.0 0.00 0.00 0.00 74 1011.6
20180121161135 70 160 15.0 13.0 0.00 0.00 0.00 75 1011.6
20180121160408 68 149 13.0 18.0 0.00 0.00 0.00 78 1011.5
20180121155637 66 156 15.0 16.0 0.00 0.00 0.00 81 1011.6
20180121154910 67 152 11.0 8.0 0.00 0.00 0.00 83 1011.7
20180121154144 65 148 9.0 10.0 0.00 0.00 0.00 85 1011.7
20180121153417 66 165 11.0 9.0 0.00 0.00 0.00 85 1011.7
20180121152646 66 143 12.0 12.0 0.00 0.00 0.00 85 1011.7
20180121151918 65 167 13.0 13.0 0.00 0.00 0.00 85 1011.7
20180121151152 66 150 12.0 11.0 0.00 0.00 0.00 85 1011.7
20180121150424 65 148 9.0 11.0 0.00 0.00 0.00 86 1011.7
20180121145651 65 150 12.0 11.0 0.00 0.00 0.00 86 1011.6
20180121144919 64 143 11.0 7.0 0.00 0.00 0.00 87 1011.5
20180121144152 64 153 11.0 11.0 0.00 0.00 0.00 88 1011.5
20180121143424 64 155 11.0 10.0 0.00 0.00 0.00 88 1011.5
20180121142650 64 134 11.0 10.0 0.00 0.00 0.00 89 1011.5
20180121141922 63 138 11.0 12.0 0.00 0.00 0.00 89 1011.4
20180121141156 62 149 11.0 12.0 0.00 0.00 0.00 90 1011.3
20180121140429 63 143 10.0 12.0 0.00 0.00 0.00 90 1011.3
20180121135659 63 129 11.0 10.0 0.00 0.00 0.00 90 1011.2
20180121134931 62 139 11.0 9.0 0.00 0.00 0.00 89 1011.2
20180121125118 62 156 8.0 7.0 0.00 0.00 0.00 87 1011.3
20180121124329 61 136 7.0 6.0 0.00 0.00 0.00 87 1011.3
20180121123557 63 125 8.0 7.0 0.00 0.00 0.00 86 1011.3
20180121122830 62 142 8.0 10.0 0.00 0.00 0.00 86 1011.4
20180121122104 63 148 9.0 7.0 0.00 0.00 0.00 86 1011.5
20180121121337 63 125 8.0 7.0 0.00 0.00 0.00 86 1011.7
20180121120602 63 146 8.0 11.0 0.00 0.00 0.00 86 1011.6
20180121115835 61 162 8.0 10.0 0.00 0.00 0.00 85 1011.6
20180121115108 63 160 10.0 11.0 0.00 0.00 0.00 84 1011.5
20180121114341 64 163 8.0 8.0 0.00 0.00 0.00 84 1011.7
20180121113610 62 186 6.0 7.0 0.00 0.00 0.00 84 1011.8
20180121112843 64 165 8.0 5.0 0.00 0.00 0.00 84 1011.7
20180121112112 63 160 8.0 7.0 0.00 0.00 0.00 83 1011.8
20180121111345 64 176 10.0 11.0 0.00 0.00 0.00 83 1011.6
20180121110611 64 163 9.0 7.0 0.00 0.00 0.00 82 1011.6
20180121105845 63 159 15.0 17.0 0.00 0.00 0.00 82 1011.5
20180121105118 64 156 14.0 11.0 0.00 0.00 0.00 83 1011.7
20180121104346 64 170 11.0 11.0 0.00 0.00 0.00 83 1011.8
20180121103613 63 156 11.0 9.0 0.00 0.00 0.00 83 1011.8
20180121102839 63 181 10.0 12.0 0.00 0.00 0.00 83 1011.7
20180121102113 64 141 12.0 11.0 0.00 0.00 0.00 84 1011.7
20180121101346 63 141 10.0 10.0 0.00 0.00 0.00 84 1011.8
20180121100612 63 172 10.0 10.0 0.00 0.00 0.00 85 1011.9
20180121095845 63 166 12.0 9.0 0.00 0.00 0.00 85 1011.9
20180121095112 63 160 10.0 6.0 0.00 0.00 0.00 85 1012.0
20180121094343 63 159 13.0 15.0 0.00 0.00 0.00 85 1012.0
20180121093605 63 162 16.0 18.0 0.00 0.00 0.00 85 1012.1
20180121092838 62 174 14.0 14.0 0.00 0.00 0.00 87 1012.0
20180121092111 62 153 10.0 10.0 0.00 0.00 0.00 88 1012.0
20180121091345 61 179 9.0 6.0 0.00 0.00 0.00 88 1012.0
20180121090608 62 152 8.0 6.0 0.00 0.00 0.00 88 1012.1
20180121085842 62 173 8.0 10.0 0.00 0.00 0.00 88 1012.0
20180121085115 61 172 10.0 10.0 0.00 0.00 0.00 88 1012.2
20180121084348 61 167 10.0 9.0 0.00 0.00 0.00 88 1012.4
20180121083609 62 159 9.0 13.0 0.00 0.00 0.00 88 1012.7
20180121082842 62 146 12.0 13.0 0.00 0.00 0.00 88 1012.8
20180121082112 61 148 10.0 11.0 0.00 0.00 0.00 89 1012.7
20180121081344 60 158 9.0 7.0 0.00 0.00 0.00 88 1012.6
20180121080609 61 165 8.0 9.0 0.00 0.00 0.00 89 1012.4
20180121075842 62 166 9.0 13.0 0.00 0.00 0.00 88 1012.3
20180121075115 60 188 8.0 7.0 0.00 0.00 0.00 88 1012.2
20180121074348 62 141 9.0 12.0 0.00 0.00 0.00 88 1012.2
20180121073615 60 139 9.0 12.0 0.00 0.00 0.00 87 1012.3
20180121072849 61 146 11.0 8.0 0.00 0.00 0.00 86 1012.3
20180121072120 62 148 8.0 5.0 0.00 0.00 0.00 85 1012.3
20180121071354 63 153 12.0 9.0 0.00 0.00 0.00 85 1012.3
20180121070623 63 143 9.0 9.0 0.00 0.00 0.00 85 1012.4
20180121065857 61 160 9.0 9.0 0.00 0.00 0.00 85 1012.4
20180121065128 62 156 10.0 10.0 0.00 0.00 0.00 84 1012.5
20180121064400 63 138 11.0 10.0 0.00 0.00 0.00 84 1012.7
20180121063628 62 173 7.0 9.0 0.00 0.00 0.00 83 1012.8
20180121062901 63 152 11.0 11.0 0.00 0.00 0.00 83 1012.8
20180121062134 63 176 8.0 7.0 0.00 0.00 0.00 84 1013.0
20180121061406 64 184 12.0 14.0 0.00 0.00 0.00 83 1012.8
20180121060634 62 165 10.0 12.0 0.00 0.00 0.00 84 1012.8
20180121055907 62 159 12.0 14.0 0.00 0.00 0.00 84 1013.0
20180121055140 61 145 11.0 19.0 0.00 0.00 0.00 85 1013.0
20180121054412 62 170 12.0 11.0 0.00 0.00 0.00 85 1013.0
20180121053640 62 177 12.0 9.0 0.00 0.00 0.00 86 1013.2
20180121052913 61 186 11.0 8.0 0.00 0.00 0.00 87 1013.0
20180121052146 60 179 11.0 13.0 0.00 0.00 0.00 87 1013.0
20180121051414 59 138 10.0 9.0 0.00 0.00 0.00 88 1013.0
20180121050640 59 167 11.0 10.0 0.00 0.00 0.00 88 1013.0
20180121045914 59 138 13.0 10.0 0.00 0.00 0.00 88 1013.2
20180121045631 59 167 12.0 11.0 0.00 0.00 0.00 88 1013.2
20180121045142 60 160 14.0 10.0 0.00 0.00 0.00 88 1013.2
20180121044415 59 165 11.0 10.0 0.00 0.00 0.00 88 1013.2
20180121043642 59 167 12.0 11.0 0.00 0.00 0.00 88 1013.2
20180121042913 60 146 12.0 10.0 0.00 0.00 0.00 89 1013.2
20180121042146 59 156 11.0 12.0 0.00 0.00 0.00 89 1013.0
20180121041420 58 129 10.0 13.0 0.00 0.00 0.00 89 1013.0
20180121040649 58 156 10.0 12.0 0.00 0.00 0.00 89 1013.0
20180121040432 59 139 9.0 13.0 0.00 0.00 0.00 88 1012.9
20180121035923 59 139 9.0 13.0 0.00 0.00 0.00 88 1012.9
20180121035155 59 141 9.0 7.0 0.00 0.00 0.00 88 1012.7
20180121034427 60 156 9.0 7.0 0.00 0.00 0.00 88 1012.8
20180121033656 60 132 12.0 10.0 0.00 0.00 0.00 88 1012.7
20180121032922 60 142 10.0 7.0 0.00 0.00 0.00 87 1012.7
20180121032156 60 148 11.0 9.0 0.00 0.00 0.00 87 1012.6
20180121031428 59 145 10.0 10.0 0.00 0.00 0.00 86 1012.6
20180121030656 61 145 8.0 11.0 0.00 0.00 0.00 86 1012.5
20180121025929 59 139 9.0 10.0 0.00 0.00 0.00 85 1012.5
20180121025202 61 122 10.0 8.0 0.00 0.00 0.00 84 1012.5
20180121024435 60 165 11.0 10.0 0.00 0.00 0.00 83 1012.5
20180121023704 62 149 11.0 10.0 0.00 0.00 0.00 83 1012.5
20180121022937 62 136 12.0 13.0 0.00 0.00 0.00 82 1012.5
20180121022209 61 138 12.0 15.0 0.00 0.00 0.00 82 1012.4
20180121021440 61 125 15.0 10.0 0.00 0.00 0.00 81 1012.4
20180121020705 63 131 14.0 13.0 0.00 0.00 0.00 80 1012.2
20180121015938 62 139 15.0 16.0 0.00 0.00 0.00 79 1012.2
20180121015211 63 139 15.0 18.0 0.00 0.00 0.00 78 1012.2
20180121014445 64 129 13.0 16.0 0.00 0.00 0.00 77 1012.2
20180121013709 64 141 12.0 13.0 0.00 0.00 0.00 76 1012.3
20180121012942 63 101 12.0 13.0 0.00 0.00 0.00 75 1012.1
20180121012216 66 136 10.0 12.0 0.00 0.00 0.00 73 1012.0
20180121011449 64 156 11.0 10.0 0.00 0.00 0.00 72 1011.8
20180121010717 67 156 10.0 9.0 0.00 0.00 0.00 70 1011.7
20180121010605 67 132 10.0 10.0 0.00 0.00 0.00 69 1011.6
20180121005947 67 132 10.0 10.0 0.00 0.00 0.00 69 1011.6
20180121005221 67 153 10.0 15.0 0.00 0.00 0.00 68 1011.6
20180121004453 68 107 11.0 14.0 0.00 0.00 0.00 67 1011.5
20180121003718 68 134 11.0 7.0 0.00 0.00 0.00 66 1011.4
20180121002951 68 136 10.0 11.0 0.00 0.00 0.00 64 1011.5
20180121002224 70 107 10.0 9.0 0.00 0.00 0.00 58 1011.5